Location: Albany
(35.0170°S, 117.8920°E)
Time: 08:14:19
(UTC+08:00)

S-56A Canister/Altair - Pass Details

Date: 22 January 2021
Orbit: 632 x 2501 km, 38.9° (Epoch: 25 February)

Event Time Altitude Azimuth Distance (km) Brightness Sun altitude
Rises 19:01:55 0° 252° (WSW) 6,178 15.3 3.0°
Reaches altitude 10° 19:06:07 10° 252° (WSW) 5,098 14.2 2.2°
Maximum altitude 19:20:40 87° 339° (NNW) 2,024 9.7 -0.5°
Drops below altitude 10° 19:30:52 10° 66° (ENE) 3,708 10.3 -2.4°
Enters shadow 19:32:38 - 66° (ENE) 4,223 10.6 -2.8°
Sets 19:33:27 0° 66° (ENE) 4,466 - -2.9°
